Weather History for Charlottesville, VA

Change the Weather History Date:

Sunday, December 18, 2011

  Actual Average Record
Temperature  
Mean Temperature 37 °F 37 °F  
Max Temperature 47 °F 46 °F 74 °F (2006)
Min Temperature 26 °F 28 °F 9 °F (1951)
Degree Days  
Heating Degree Days 28 28  
Month to date heating degree days 406 466  
Since 1 July heating degree days 1122 1357  
Cooling Degree Days 0 0  
Month to date cooling degree days 0 0  
Year to date cooling degree days 1603 1035  
Moisture  
Dew Point 23 °F    
Average Humidity 63    
Maximum Humidity 85    
Minimum Humidity 40    
Precipitation  
Precipitation 0.00 in 0.10 in 0.62 in (2009)
Month to date precipitation 2.45 2.05  
Year to date precipitation 46.40 41.61  
Sea Level Pressure  
Sea Level Pressure 30.27 in    
Wind  
Wind Speed 1 mph (NNE)    
Max Wind Speed 9 mph    
Max Gust Speed 12 mph    
Visibility 10 miles    
Events      
T = Trace of Precipitation, MM = Missing Value Source: NWS Daily Summary

Daily Weather History Graph

Daily Weather History Graph

Search for Another Location

Airport:

Trip Planner

Search our weather history database for the weather conditions in past years. The results will help you decide how hot, cold, wet, or windy it might be!

Date:

Astronomy

Dec. 18, 2011 Rise Set
Actual Time 7:24 AM EST 4:55 PM EST
Civil Twilight 6:55 AM EST 5:25 PM EST
Nautical Twilight 6:22 AM EST 5:58 PM EST
Astronomical Twilight 5:49 AM EST 6:30 PM EST
Moon 12:28 AM EST (12/18) 12:16 PM EST (12/18)
Length of Visible Light 10h 30m
Length of Day
9h 31m
Last Quarter, 42% of the Moon is Illuminated
Dec 18
Last Quarter
Dec 24
New
Jan 1
First Quarter
Jan 9
Full
Jan 16
Last Quarter

Hourly Weather History & Observations

Time (EST) Temp. Windchill Dew Point Humidity Pressure Visibility Wind Dir Wind Speed Gust Speed Precip Events Conditions
12:53 AM 30.9 °F - 21.0 °F 67% 30.22 in 10.0 mi Calm Calm - N/A   Overcast
1:53 AM 32.0 °F - 24.1 °F 73% 30.21 in 10.0 mi Calm Calm - N/A   Overcast
2:53 AM 30.9 °F - 24.1 °F 76% 30.22 in 10.0 mi Calm Calm - N/A   Overcast
3:53 AM 30.2 °F - 24.8 °F 80% 30.20 in 10.0 mi Calm Calm - N/A   Overcast
4:53 AM 30.0 °F - 25.0 °F 82% 30.21 in 10.0 mi Calm Calm - N/A   Overcast
5:53 AM 30.0 °F - 24.1 °F 79% 30.23 in 10.0 mi Calm Calm - N/A   Overcast
7:53 AM 27.0 °F - 23.0 °F 85% 30.26 in 8.0 mi Calm Calm - N/A   Overcast
8:53 AM 30.2 °F - 26.6 °F 86% 30.26 in 10.0 mi Calm Calm - N/A   Overcast
9:53 AM 35.6 °F - 26.6 °F 70% 30.27 in 10.0 mi Calm Calm - N/A   Mostly Cloudy
10:53 AM 39.2 °F - 24.8 °F 56% 30.27 in 10.0 mi Calm Calm - N/A   Scattered Clouds
11:53 AM 41.0 °F - 26.1 °F 55% 30.27 in 10.0 mi Calm Calm - N/A   Overcast
12:53 PM 43.0 °F 39.5 °F 21.0 °F 42% 30.25 in 10.0 mi NW 5.8 mph - N/A   Overcast
1:53 PM 45.0 °F 41.8 °F 21.9 °F 40% 30.23 in 10.0 mi NNW 5.8 mph - N/A   Clear
2:53 PM 44.6 °F 43.1 °F 23.0 °F 43% 30.23 in 10.0 mi NE 3.5 mph - N/A   Partly Cloudy
3:53 PM 45.0 °F - 23.0 °F 42% 30.26 in 10.0 mi Calm Calm - N/A   Clear
4:53 PM 39.0 °F - 24.1 °F 55% 30.28 in 10.0 mi Calm Calm - N/A   Clear
5:53 PM 37.9 °F 31.5 °F 23.0 °F 55% 30.30 in 10.0 mi ENE 9.2 mph - N/A   Clear
6:53 PM 37.9 °F - 21.9 °F 53% 30.32 in 10.0 mi Calm Calm - N/A   Clear
7:53 PM 30.9 °F - 21.9 °F 69% 30.34 in 10.0 mi Calm Calm - N/A   Clear
8:53 PM 30.9 °F - 21.9 °F 69% 30.33 in 10.0 mi Calm Calm - N/A   Clear
9:53 PM 28.9 °F - 21.9 °F 75% 30.34 in 10.0 mi Calm Calm - N/A   Clear
10:53 PM 28.9 °F - 21.0 °F 72% 30.34 in 10.0 mi Calm Calm - N/A   Clear
11:53 PM 26.1 °F - 21.0 °F 81% 30.33 in 10.0 mi Calm Calm - N/A   Clear